Location: ?ern� Novina
(50.6762°N, 14.8696°E)
Time: 02:26:38
(UTC+00:00)

Cosmos 1943 Rocket - Pass Details

Date: 03 March 2021
Orbit: 811 x 844 km, 71.0° (Epoch: 13 April)

Event Time Altitude Azimuth Distance (km) Brightness Sun altitude
Rises 18:58:59 0° 331° (NNW) 3,416 6.1 -21.7°
Reaches altitude 10° 19:02:15 10° 350° (N) 2,478 5.0 -22.2°
Maximum altitude 19:06:09 19° 33° (NNE) 1,940 3.9 -22.8°
Enters shadow 19:06:45 18° 41° (NE) 1,953 3.9 -22.9°
